| time (UTC) | temp F | wind direction | speed knots | gust knots | rain 1hr in | rain 24hr in | rain mn in | humidity % | barometer mb |
| 20260510024326 | 75 | 208 | 0.0 | 0.9 | 0.00 | 0.00 | 0.00 | 33 | 1012.6 |
| 20260510023819 | 76 | 208 | 0.0 | 1.7 | 0.00 | 0.00 | 0.00 | 33 | 1012.5 |
| 20260510023329 | 76 | 208 | 0.0 | 3.5 | 0.00 | 0.00 | 0.00 | 33 | 1012.5 |
| 20260510022820 | 77 | 238 | 0.0 | 2.6 | 0.00 | 0.00 | 0.00 | 33 | 1012.5 |
| 20260510022315 | 77 | 276 | 0.0 | 0.9 | 0.00 | 0.00 | 0.00 | 32 | 1012.4 |
| 20260510021827 | 78 | 276 | 0.0 | 1.7 | 0.00 | 0.00 | 0.00 | 32 | 1012.4 |
| 20260510021337 | 78 | 263 | 0.0 | 4.3 | 0.00 | 0.00 | 0.00 | 31 | 1012.3 |
| 20260510020827 | 79 | 216 | 1.7 | 4.3 | 0.00 | 0.00 | 0.00 | 31 | 1012.3 |
| 20260510020319 | 79 | 277 | 1.7 | 5.2 | 0.00 | 0.00 | 0.00 | 31 | 1012.2 |
| 20260510015830 | 79 | 220 | 2.6 | 7.8 | 0.00 | 0.00 | 0.00 | 31 | 1012.1 |
| 20260510015320 | 80 | 231 | 4.3 | 7.8 | 0.00 | 0.00 | 0.00 | 30 | 1012.1 |
| 20260510014812 | 81 | 251 | 3.5 | 7.0 | 0.00 | 0.00 | 0.00 | 29 | 1012.0 |
| 20260510014323 | 82 | 219 | 2.6 | 5.2 | 0.00 | 0.00 | 0.00 | 30 | 1011.9 |
| 20260510013814 | 82 | 233 | 1.7 | 9.6 | 0.00 | 0.00 | 0.00 | 29 | 1011.8 |
| 20260510013324 | 82 | 216 | 3.5 | 9.6 | 0.00 | 0.00 | 0.00 | 29 | 1011.8 |
| 20260510012820 | 83 | 204 | 5.2 | 7.8 | 0.00 | 0.00 | 0.00 | 29 | 1011.8 |
| 20260510012330 | 83 | 220 | 3.5 | 9.6 | 0.00 | 0.00 | 0.00 | 29 | 1011.7 |
| 20260510011822 | 84 | 222 | 4.3 | 9.6 | 0.00 | 0.00 | 0.00 | 29 | 1011.6 |
| 20260510011313 | 84 | 205 | 3.5 | 7.0 | 0.00 | 0.00 | 0.00 | 28 | 1011.6 |
| 20260510010845 | 85 | 245 | 1.7 | 7.8 | 0.00 | 0.00 | 0.00 | 29 | 1011.6 |
| 20260510010314 | 84 | 195 | 3.5 | 7.8 | 0.00 | 0.00 | 0.00 | 29 | 1011.6 |
| 20260510005826 | 85 | 242 | 3.5 | 8.7 | 0.00 | 0.00 | 0.00 | 30 | 1011.5 |
| 20260510005317 | 85 | 224 | 5.2 | 9.6 | 0.00 | 0.00 | 0.00 | 29 | 1011.4 |
| 20260510004829 | 85 | 260 | 5.2 | 9.6 | 0.00 | 0.00 | 0.00 | 28 | 1011.4 |
| 20260510004324 | 86 | 220 | 3.5 | 10.4 | 0.00 | 0.00 | 0.00 | 29 | 1011.3 |
| 20260510003816 | 86 | 241 | 3.5 | 10.4 | 0.00 | 0.00 | 0.00 | 28 | 1011.3 |
| 20260510003327 | 87 | 196 | 3.5 | 8.7 | 0.00 | 0.00 | 0.00 | 28 | 1011.3 |
| 20260510002819 | 87 | 200 | 3.5 | 7.8 | 0.00 | 0.00 | 0.00 | 27 | 1011.3 |
| 20260510002351 | 87 | 303 | 2.6 | 7.0 | 0.00 | 0.00 | 0.00 | 27 | 1011.3 |
| 20260510001821 | 87 | 300 | 3.5 | 9.6 | 0.00 | 0.00 | 0.00 | 27 | 1011.3 |
| 20260510001312 | 87 | 275 | 2.6 | 9.6 | 0.00 | 0.00 | 0.00 | 27 | 1011.3 |
| 20260510000823 | 87 | 197 | 4.3 | 11.3 | 0.00 | 0.00 | 0.00 | 27 | 1011.3 |
| 20260510000315 | 88 | 209 | 4.3 | 11.3 | 0.00 | 0.00 | 0.00 | 27 | 1011.2 |
| 20260509235826 | 88 | 172 | 5.2 | 10.4 | 0.00 | 0.00 | 0.00 | 26 | 1011.2 |
| 20260509235321 | 88 | 214 | 5.2 | 10.4 | 0.00 | 0.00 | 0.00 | 26 | 1011.1 |
| 20260509234813 | 88 | 224 | 5.2 | 10.4 | 0.00 | 0.00 | 0.00 | 26 | 1011.1 |
| 20260509234324 | 88 | 211 | 5.2 | 10.4 | 0.00 | 0.00 | 0.00 | 26 | 1011.1 |
| 20260509233814 | 88 | 218 | 7.0 | 10.4 | 0.00 | 0.00 | 0.00 | 26 | 1011.1 |
| 20260509233325 | 89 | 217 | 6.1 | 10.4 | 0.00 | 0.00 | 0.00 | 26 | 1011.2 |
| 20260509232815 | 89 | 223 | 5.2 | 9.6 | 0.00 | 0.00 | 0.00 | 26 | 1011.1 |
| 20260509232327 | 89 | 221 | 6.1 | 9.6 | 0.00 | 0.00 | 0.00 | 25 | 1011.1 |
| 20260509231818 | 89 | 231 | 2.6 | 7.8 | 0.00 | 0.00 | 0.00 | 25 | 1011.2 |
| 20260509231330 | 89 | 242 | 2.6 | 10.4 | 0.00 | 0.00 | 0.00 | 24 | 1011.1 |
| 20260509230826 | 90 | 233 | 5.2 | 10.4 | 0.00 | 0.00 | 0.00 | 24 | 1011.2 |
| 20260509230318 | 90 | 181 | 3.5 | 9.6 | 0.00 | 0.00 | 0.00 | 24 | 1011.2 |
| 20260509225828 | 90 | 221 | 4.3 | 10.4 | 0.00 | 0.00 | 0.00 | 23 | 1011.2 |
| 20260509225319 | 91 | 176 | 2.6 | 10.4 | 0.00 | 0.00 | 0.00 | 23 | 1011.2 |
| 20260509224811 | 90 | 158 | 3.5 | 9.6 | 0.00 | 0.00 | 0.00 | 23 | 1011.1 |
| 20260509223820 | 91 | 283 | 3.5 | 9.6 | 0.00 | 0.00 | 0.00 | 22 | 1011.2 |
| 20260509223330 | 91 | 229 | 2.6 | 7.8 | 0.00 | 0.00 | 0.00 | 21 | 1011.2 |
| 20260509222821 | 91 | 179 | 0.9 | 4.3 | 0.00 | 0.00 | 0.00 | 22 | 1011.3 |
| 20260509222311 | 91 | 34 | 2.6 | 9.6 | 0.00 | 0.00 | 0.00 | 21 | 1011.3 |
| 20260509221826 | 91 | 194 | 5.2 | 9.6 | 0.00 | 0.00 | 0.00 | 20 | 1011.4 |
| 20260509221337 | 90 | 290 | 0.9 | 10.4 | 0.00 | 0.00 | 0.00 | 21 | 1011.4 |
| 20260509220828 | 90 | 226 | 6.1 | 10.4 | 0.00 | 0.00 | 0.00 | 20 | 1011.4 |
| 20260509220320 | 90 | 64 | 2.6 | 7.0 | 0.00 | 0.00 | 0.00 | 20 | 1011.6 |
| 20260509215831 | 90 | 226 | 3.5 | 7.0 | 0.00 | 0.00 | 0.00 | 21 | 1011.7 |
| 20260509214832 | 91 | 212 | 3.5 | 7.8 | 0.00 | 0.00 | 0.00 | 21 | 1011.6 |
| 20260509214322 | 90 | 179 | 0.9 | 7.8 | 0.00 | 0.00 | 0.00 | 20 | 1011.6 |
| 20260509213812 | 90 | 196 | 3.5 | 7.8 | 0.00 | 0.00 | 0.00 | 21 | 1011.7 |
| 20260509213323 | 90 | 210 | 2.6 | 7.0 | 0.00 | 0.00 | 0.00 | 21 | 1011.7 |
| 20260509212818 | 90 | 271 | 2.6 | 7.0 | 0.00 | 0.00 | 0.00 | 21 | 1012.0 |
| 20260509212330 | 90 | 219 | 2.6 | 6.1 | 0.00 | 0.00 | 0.00 | 21 | 1012.0 |
| 20260509211821 | 90 | 249 | 1.7 | 6.1 | 0.00 | 0.00 | 0.00 | 22 | 1012.1 |
| 20260509211312 | 90 | 217 | 1.7 | 7.0 | 0.00 | 0.00 | 0.00 | 23 | 1012.2 |
| 20260509210823 | 89 | 183 | 3.5 | 7.8 | 0.00 | 0.00 | 0.00 | 24 | 1012.3 |
| 20260509210313 | 89 | 253 | 3.5 | 7.8 | 0.00 | 0.00 | 0.00 | 24 | 1012.4 |
| 20260509205826 | 89 | 179 | 2.6 | 9.6 | 0.00 | 0.00 | 0.00 | 23 | 1012.5 |
| 20260509205338 | 88 | 283 | 2.6 | 9.6 | 0.00 | 0.00 | 0.00 | 24 | 1012.5 |
| 20260509204828 | 88 | 216 | 3.5 | 7.0 | 0.00 | 0.00 | 0.00 | 24 | 1012.5 |
| 20260509204319 | 88 | 143 | 1.7 | 7.0 | 0.00 | 0.00 | 0.00 | 23 | 1012.6 |
| 20260509203815 | 88 | 248 | 2.6 | 7.8 | 0.00 | 0.00 | 0.00 | 24 | 1012.6 |
| 20260509203347 | 88 | 231 | 2.6 | 7.8 | 0.00 | 0.00 | 0.00 | 24 | 1012.6 |
| 20260509202837 | 88 | 313 | 1.7 | 5.2 | 0.00 | 0.00 | 0.00 | 24 | 1012.6 |
| 20260509202327 | 87 | 205 | 2.6 | 7.0 | 0.00 | 0.00 | 0.00 | 24 | 1012.8 |
| 20260509201818 | 87 | 280 | 3.5 | 7.0 | 0.00 | 0.00 | 0.00 | 25 | 1012.7 |
| 20260509201329 | 87 | 279 | 2.6 | 7.0 | 0.00 | 0.00 | 0.00 | 24 | 1012.7 |
| 20260509200819 | 87 | 250 | 2.6 | 7.8 | 0.00 | 0.00 | 0.00 | 25 | 1012.7 |
| 20260509200331 | 87 | 221 | 3.5 | 8.7 | 0.00 | 0.00 | 0.00 | 24 | 1012.8 |
| 20260509195822 | 87 | 212 | 3.5 | 8.7 | 0.00 | 0.00 | 0.00 | 25 | 1012.8 |
| 20260509195314 | 87 | 280 | 3.5 | 7.0 | 0.00 | 0.00 | 0.00 | 25 | 1012.8 |
| 20260509194830 | 87 | 208 | 3.5 | 7.0 | 0.00 | 0.00 | 0.00 | 25 | 1013.0 |
| 20260509194320 | 87 | 310 | 1.7 | 7.0 | 0.00 | 0.00 | 0.00 | 25 | 1013.0 |
| 20260509193812 | 87 | 229 | 2.6 | 6.1 | 0.00 | 0.00 | 0.00 | 26 | 1013.0 |
| 20260509193324 | 86 | 271 | 1.7 | 6.1 | 0.00 | 0.00 | 0.00 | 25 | 1013.0 |
| 20260509192815 | 86 | 230 | 3.5 | 6.1 | 0.00 | 0.00 | 0.00 | 25 | 1013.0 |
| 20260509192328 | 86 | 84 | 1.7 | 6.1 | 0.00 | 0.00 | 0.00 | 26 | 1013.1 |
| 20260509191820 | 85 | 207 | 1.7 | 5.2 | 0.00 | 0.00 | 0.00 | 26 | 1013.1 |
| 20260509191331 | 85 | 318 | 1.7 | 7.0 | 0.00 | 0.00 | 0.00 | 25 | 1013.3 |
| 20260509190842 | 85 | 328 | 3.5 | 7.0 | 0.00 | 0.00 | 0.00 | 25 | 1013.2 |
| 20260509190316 | 85 | 257 | 1.7 | 5.2 | 0.00 | 0.00 | 0.00 | 27 | 1013.3 |
| 20260509185828 | 84 | 250 | 2.6 | 5.2 | 0.00 | 0.00 | 0.00 | 28 | 1013.3 |
| 20260509185318 | 84 | 302 | 1.7 | 4.3 | 0.00 | 0.00 | 0.00 | 28 | 1013.4 |
| 20260509184828 | 84 | 266 | 1.7 | 5.2 | 0.00 | 0.00 | 0.00 | 28 | 1013.4 |
| 20260509184317 | 83 | 210 | 1.7 | 5.2 | 0.00 | 0.00 | 0.00 | 30 | 1013.4 |
| 20260509183828 | 83 | 265 | 2.6 | 5.2 | 0.00 | 0.00 | 0.00 | 29 | 1013.5 |
| 20260509183319 | 82 | 134 | 1.7 | 6.1 | 0.00 | 0.00 | 0.00 | 30 | 1013.5 |
| 20260509182811 | 82 | 186 | 2.6 | 6.1 | 0.00 | 0.00 | 0.00 | 29 | 1013.5 |
| 20260509182321 | 82 | 257 | 2.6 | 5.2 | 0.00 | 0.00 | 0.00 | 30 | 1013.3 |
| 20260509181814 | 81 | 283 | 2.6 | 7.0 | 0.00 | 0.00 | 0.00 | 30 | 1013.5 |
| 20260509181345 | 81 | 248 | 2.6 | 7.0 | 0.00 | 0.00 | 0.00 | 32 | 1013.5 |
| 20260509180836 | 81 | 272 | 0.9 | 5.2 | 0.00 | 0.00 | 0.00 | 32 | 1013.5 |
| 20260509180330 | 81 | 241 | 2.6 | 5.2 | 0.00 | 0.00 | 0.00 | 34 | 1013.6 |
| 20260509175821 | 80 | 224 | 2.6 | 5.2 | 0.00 | 0.00 | 0.00 | 33 | 1013.5 |
| 20260509175312 | 80 | 274 | 1.7 | 6.1 | 0.00 | 0.00 | 0.00 | 37 | 1013.8 |
| 20260509174844 | 79 | 266 | 1.7 | 6.1 | 0.00 | 0.00 | 0.00 | 38 | 1013.8 |
| 20260509174314 | 79 | 238 | 1.7 | 4.3 | 0.00 | 0.00 | 0.00 | 38 | 1013.8 |
| 20260509173826 | 78 | 251 | 1.7 | 4.3 | 0.00 | 0.00 | 0.00 | 38 | 1013.8 |
| 20260509173317 | 77 | 211 | 0.0 | 6.1 | 0.00 | 0.00 | 0.00 | 44 | 1013.8 |
| 20260509172828 | 77 | 39 | 0.9 | 6.1 | 0.00 | 0.00 | 0.00 | 44 | 1013.8 |
| 20260509172319 | 76 | 301 | 1.7 | 5.2 | 0.00 | 0.00 | 0.00 | 45 | 1013.7 |
| 20260509171830 | 76 | 309 | 2.6 | 4.3 | 0.00 | 0.00 | 0.00 | 45 | 1013.8 |
| 20260509171321 | 75 | 266 | 1.7 | 3.5 | 0.00 | 0.00 | 0.00 | 47 | 1013.8 |
| 20260509170816 | 75 | 285 | 0.9 | 4.3 | 0.00 | 0.00 | 0.00 | 48 | 1013.8 |
| 20260509170328 | 74 | 267 | 2.6 | 4.3 | 0.00 | 0.00 | 0.00 | 47 | 1013.9 |
| 20260509165820 | 74 | 300 | 0.9 | 3.5 | 0.00 | 0.00 | 0.00 | 48 | 1013.9 |
| 20260509165313 | 73 | 37 | 0.9 | 3.5 | 0.00 | 0.00 | 0.00 | 49 | 1013.9 |
| 20260509164845 | 73 | 307 | 1.7 | 3.5 | 0.00 | 0.00 | 0.00 | 49 | 1013.9 |
| 20260509164315 | 73 | 96 | 0.9 | 3.5 | 0.00 | 0.00 | 0.00 | 50 | 1014.0 |
| 20260509163826 | 73 | 319 | 1.7 | 3.5 | 0.00 | 0.00 | 0.00 | 49 | 1013.9 |
| 20260509163317 | 72 | 297 | 0.0 | 2.6 | 0.00 | 0.00 | 0.00 | 52 | 1014.0 |
| 20260509162811 | 72 | 284 | 0.0 | 0.0 | 0.00 | 0.00 | 0.00 | 52 | 1013.9 |
| 20260509162323 | 71 | 311 | 0.0 | 0.0 | 0.00 | 0.00 | 0.00 | 53 | 1014.0 |
| 20260509161814 | 71 | 264 | 0.0 | 2.6 | 0.00 | 0.00 | 0.00 | 54 | 1013.9 |
| 20260509161326 | 70 | 23 | 0.0 | 2.6 | 0.00 | 0.00 | 0.00 | 55 | 1013.9 |
| 20260509160818 | 70 | 303 | 0.0 | 0.0 | 0.00 | 0.00 | 0.00 | 55 | 1014.0 |
| 20260509160350 | 69 | 309 | 0.0 | 0.0 | 0.00 | 0.00 | 0.00 | 55 | 1013.9 |
| 20260509155819 | 70 | 327 | 0.0 | 0.0 | 0.00 | 0.00 | 0.00 | 55 | 1013.9 |
| 20260509155330 | 70 | 318 | 0.0 | 0.0 | 0.00 | 0.00 | 0.00 | 55 | 1014.0 |
| 20260509154843 | 69 | 295 | 0.0 | 0.0 | 0.00 | 0.00 | 0.00 | 54 | 1014.0 |
| 20260509154312 | 69 | 81 | 0.0 | 0.0 | 0.00 | 0.00 | 0.00 | 55 | 1014.0 |
| 20260509153844 | 69 | 327 | 0.0 | 0.0 | 0.00 | 0.00 | 0.00 | 55 | 1014.0 |
| 20260509153318 | 69 | 312 | 0.0 | 0.0 | 0.00 | 0.00 | 0.00 | 57 | 1014.1 |
| 20260509152830 | 68 | 313 | 0.0 | 0.0 | 0.00 | 0.00 | 0.00 | 58 | 1014.2 |
| 20260509152321 | 67 | 307 | 0.0 | 0.0 | 0.00 | 0.00 | 0.00 | 57 | 1014.2 |
| 20260509151812 | 68 | 271 | 0.0 | 0.0 | 0.00 | 0.00 | 0.00 | 58 | 1014.2 |
| 20260509151324 | 67 | 236 | 0.0 | 0.0 | 0.00 | 0.00 | 0.00 | 59 | 1014.2 |
| 20260509150836 | 66 | 200 | 0.0 | 0.0 | 0.00 | 0.00 | 0.00 | 61 | 1014.2 |
| 20260509150325 | 65 | 315 | 0.0 | 0.0 | 0.00 | 0.00 | 0.00 | 63 | 1014.3 |
| 20260509145816 | 64 | 315 | 0.0 | 0.0 | 0.00 | 0.00 | 0.00 | 62 | 1014.2 |
| 20260509145327 | 65 | 315 | 0.0 | 0.0 | 0.00 | 0.00 | 0.00 | 63 | 1014.3 |
| 20260509144823 | 64 | 315 | 0.0 | 0.0 | 0.00 | 0.00 | 0.00 | 66 | 1014.4 |
| 20260509144335 | 62 | 315 | 0.0 | 0.0 | 0.00 | 0.00 | 0.00 | 69 | 1014.2 |
| 20260509143826 | 61 | 315 | 0.0 | 0.0 | 0.00 | 0.00 | 0.00 | 70 | 1014.2 |
| 20260509143339 | 60 | 315 | 0.0 | 0.0 | 0.00 | 0.00 | 0.00 | 72 | 1014.2 |
| 20260509142828 | 59 | 315 | 0.0 | 0.0 | 0.00 | 0.00 | 0.00 | 74 | 1014.2 |
| 20260509142320 | 57 | 315 | 0.0 | 0.0 | 0.00 | 0.00 | 0.00 | 75 | 1014.2 |
| 20260509141811 | 56 | 315 | 0.0 | 0.0 | 0.00 | 0.00 | 0.00 | 78 | 1014.1 |
| 20260509141321 | 56 | 315 | 0.0 | 0.0 | 0.00 | 0.00 | 0.00 | 78 | 1014.1 |
| 20260509140812 | 55 | 315 | 0.0 | 0.0 | 0.00 | 0.00 | 0.00 | 79 | 1013.9 |
| 20260509140324 | 55 | 315 | 0.0 | 0.0 | 0.00 | 0.00 | 0.00 | 80 | 1014.0 |
| 20260509135819 | 55 | 315 | 0.0 | 0.0 | 0.00 | 0.00 | 0.00 | 80 | 1014.0 |
| 20260509135330 | 54 | 315 | 0.0 | 0.0 | 0.00 | 0.00 | 0.00 | 80 | 1013.9 |
| 20260509134821 | 54 | 315 | 0.0 | 0.0 | 0.00 | 0.00 | 0.00 | 81 | 1014.0 |
| 20260509134313 | 53 | 315 | 0.0 | 0.0 | 0.00 | 0.00 | 0.00 | 82 | 1013.9 |
| 20260509133824 | 53 | 315 | 0.0 | 0.0 | 0.00 | 0.00 | 0.00 | 83 | 1013.9 |
| 20260509133314 | 53 | 315 | 0.0 | 0.0 | 0.00 | 0.00 | 0.00 | 83 | 1013.8 |
| 20260509132826 | 52 | 315 | 0.0 | 0.0 | 0.00 | 0.00 | 0.00 | 83 | 1013.8 |
| 20260509132317 | 52 | 315 | 0.0 | 0.0 | 0.00 | 0.00 | 0.00 | 84 | 1013.8 |
| 20260509131828 | 52 | 315 | 0.0 | 0.0 | 0.00 | 0.00 | 0.00 | 84 | 1013.8 |
| 20260509131323 | 52 | 315 | 0.0 | 0.0 | 0.00 | 0.00 | 0.00 | 84 | 1013.8 |
| 20260509130815 | 52 | 315 | 0.0 | 0.0 | 0.00 | 0.00 | 0.00 | 84 | 1013.8 |
| 20260509130326 | 52 | 315 | 0.0 | 0.0 | 0.00 | 0.00 | 0.00 | 83 | 1013.8 |
| 20260509125816 | 52 | 315 | 0.0 | 0.0 | 0.00 | 0.00 | 0.00 | 83 | 1013.7 |
| 20260509125328 | 52 | 315 | 0.0 | 0.0 | 0.00 | 0.00 | 0.00 | 82 | 1013.7 |
| 20260509124818 | 53 | 315 | 0.0 | 0.0 | 0.00 | 0.00 | 0.00 | 82 | 1013.6 |
| 20260509124329 | 53 | 315 | 0.0 | 0.0 | 0.00 | 0.00 | 0.00 | 82 | 1013.7 |
| 20260509123821 | 53 | 315 | 0.0 | 0.0 | 0.00 | 0.00 | 0.00 | 82 | 1013.5 |
| 20260509123311 | 53 | 315 | 0.0 | 0.0 | 0.00 | 0.00 | 0.00 | 83 | 1013.7 |
| 20260509122827 | 53 | 315 | 0.0 | 0.0 | 0.00 | 0.00 | 0.00 | 83 | 1013.5 |
| 20260509122319 | 53 | 315 | 0.0 | 0.0 | 0.00 | 0.00 | 0.00 | 83 | 1013.5 |
| 20260509121830 | 53 | 315 | 0.0 | 0.0 | 0.00 | 0.00 | 0.00 | 84 | 1013.5 |
| 20260509121342 | 53 | 315 | 0.0 | 0.0 | 0.00 | 0.00 | 0.00 | 83 | 1013.5 |
| 20260509120811 | 53 | 315 | 0.0 | 0.0 | 0.00 | 0.00 | 0.00 | 83 | 1013.5 |
| 20260509120322 | 53 | 315 | 0.0 | 0.0 | 0.00 | 0.00 | 0.00 | 82 | 1013.5 |
| 20260509115813 | 53 | 315 | 0.0 | 0.0 | 0.00 | 0.00 | 0.00 | 81 | 1013.5 |
| 20260509115345 | 53 | 315 | 0.0 | 0.0 | 0.00 | 0.00 | 0.00 | 80 | 1013.4 |
| 20260509114816 | 54 | 315 | 0.0 | 0.0 | 0.00 | 0.00 | 0.00 | 80 | 1013.4 |
| 20260509114327 | 54 | 315 | 0.0 | 0.0 | 0.00 | 0.00 | 0.00 | 80 | 1013.5 |
| 20260509113822 | 54 | 315 | 0.0 | 0.0 | 0.00 | 0.00 | 0.00 | 80 | 1013.4 |
| 20260509113315 | 54 | 315 | 0.0 | 0.0 | 0.00 | 0.00 | 0.00 | 79 | 1013.4 |
| 20260509112827 | 54 | 315 | 0.0 | 0.0 | 0.00 | 0.00 | 0.00 | 79 | 1013.4 |
| 20260509112319 | 54 | 315 | 0.0 | 0.0 | 0.00 | 0.00 | 0.00 | 79 | 1013.5 |
| 20260509111831 | 54 | 315 | 0.0 | 0.0 | 0.00 | 0.00 | 0.00 | 78 | 1013.6 |
| 20260509111322 | 54 | 315 | 0.0 | 0.0 | 0.00 | 0.00 | 0.00 | 78 | 1013.4 |
| 20260509110814 | 55 | 315 | 0.0 | 0.0 | 0.00 | 0.00 | 0.00 | 77 | 1013.5 |
| 20260509110324 | 55 | 315 | 0.0 | 0.0 | 0.00 | 0.00 | 0.00 | 77 | 1013.4 |
| 20260509105819 | 55 | 315 | 0.0 | 0.0 | 0.00 | 0.00 | 0.00 | 77 | 1013.4 |
| 20260509105330 | 55 | 315 | 0.0 | 0.0 | 0.00 | 0.00 | 0.00 | 78 | 1013.6 |
| 20260509104822 | 55 | 315 | 0.0 | 0.0 | 0.00 | 0.00 | 0.00 | 79 | 1013.6 |
| 20260509104313 | 55 | 315 | 0.0 | 0.0 | 0.00 | 0.00 | 0.00 | 80 | 1013.5 |
| 20260509103823 | 55 | 315 | 0.0 | 0.0 | 0.00 | 0.00 | 0.00 | 81 | 1013.7 |
| 20260509103315 | 55 | 315 | 0.0 | 0.0 | 0.00 | 0.00 | 0.00 | 83 | 1013.7 |
| 20260509102848 | 55 | 315 | 0.0 | 0.0 | 0.00 | 0.00 | 0.00 | 83 | 1013.7 |
| 20260509102318 | 55 | 315 | 0.0 | 0.0 | 0.00 | 0.00 | 0.00 | 82 | 1013.8 |
| 20260509101829 | 55 | 315 | 0.0 | 0.0 | 0.00 | 0.00 | 0.00 | 82 | 1013.9 |
| 20260509101324 | 55 | 315 | 0.0 | 0.0 | 0.00 | 0.00 | 0.00 | 83 | 1013.9 |
| 20260509100814 | 56 | 315 | 0.0 | 0.0 | 0.00 | 0.00 | 0.00 | 82 | 1013.8 |
| 20260509100326 | 56 | 315 | 0.0 | 0.0 | 0.00 | 0.00 | 0.00 | 82 | 1013.9 |
| 20260509095817 | 56 | 315 | 0.0 | 0.0 | 0.00 | 0.00 | 0.00 | 82 | 1014.0 |
| 20260509095327 | 57 | 315 | 0.0 | 0.0 | 0.00 | 0.00 | 0.00 | 83 | 1013.9 |
| 20260509094819 | 57 | 315 | 0.0 | 0.0 | 0.00 | 0.00 | 0.00 | 83 | 1013.9 |
| 20260509094330 | 57 | 315 | 0.0 | 0.0 | 0.00 | 0.00 | 0.00 | 83 | 1014.0 |
| 20260509093820 | 57 | 315 | 0.0 | 0.0 | 0.00 | 0.00 | 0.00 | 83 | 1014.0 |
| 20260509093351 | 57 | 315 | 0.0 | 0.0 | 0.00 | 0.00 | 0.00 | 83 | 1014.0 |
| 20260509092822 | 57 | 315 | 0.0 | 0.0 | 0.00 | 0.00 | 0.00 | 83 | 1014.1 |
| 20260509092333 | 57 | 315 | 0.0 | 0.0 | 0.00 | 0.00 | 0.00 | 83 | 1014.1 |
| 20260509091828 | 57 | 315 | 0.0 | 0.0 | 0.00 | 0.00 | 0.00 | 82 | 1014.2 |
| 20260509091319 | 57 | 315 | 0.0 | 0.0 | 0.00 | 0.00 | 0.00 | 82 | 1014.3 |
| 20260509090811 | 57 | 315 | 0.0 | 0.0 | 0.00 | 0.00 | 0.00 | 82 | 1014.3 |
| 20260509090342 | 57 | 315 | 0.0 | 0.0 | 0.00 | 0.00 | 0.00 | 83 | 1014.2 |
| 20260509085812 | 57 | 315 | 0.0 | 0.0 | 0.00 | 0.00 | 0.00 | 82 | 1014.3 |
| 20260509085324 | 57 | 315 | 0.0 | 0.0 | 0.00 | 0.00 | 0.00 | 81 | 1014.4 |
| 20260509084815 | 58 | 315 | 0.0 | 0.0 | 0.00 | 0.00 | 0.00 | 82 | 1014.4 |
| 20260509084327 | 58 | 315 | 0.0 | 0.0 | 0.00 | 0.00 | 0.00 | 82 | 1014.4 |
| 20260509083837 | 58 | 315 | 0.0 | 0.0 | 0.00 | 0.00 | 0.00 | 82 | 1014.5 |
| 20260509083311 | 58 | 315 | 0.0 | 0.0 | 0.00 | 0.00 | 0.00 | 82 | 1014.5 |
| 20260509082843 | 58 | 315 | 0.0 | 0.0 | 0.00 | 0.00 | 0.00 | 82 | 1014.5 |
| 20260509082313 | 58 | 315 | 0.0 | 0.0 | 0.00 | 0.00 | 0.00 | 82 | 1014.5 |
| 20260509081823 | 58 | 315 | 0.0 | 0.0 | 0.00 | 0.00 | 0.00 | 80 | 1014.6 |
| 20260509081314 | 58 | 315 | 0.0 | 0.0 | 0.00 | 0.00 | 0.00 | 80 | 1014.7 |
| 20260509080824 | 58 | 315 | 0.0 | 0.0 | 0.00 | 0.00 | 0.00 | 80 | 1014.7 |
| 20260509080316 | 58 | 315 | 0.0 | 0.0 | 0.00 | 0.00 | 0.00 | 79 | 1014.7 |
| 20260509075827 | 59 | 315 | 0.0 | 0.0 | 0.00 | 0.00 | 0.00 | 79 | 1014.8 |
| 20260509075320 | 59 | 315 | 0.0 | 0.0 | 0.00 | 0.00 | 0.00 | 78 | 1014.8 |
| 20260509074851 | 59 | 315 | 0.0 | 0.0 | 0.00 | 0.00 | 0.00 | 78 | 1014.8 |
| 20260509074326 | 59 | 315 | 0.0 | 0.0 | 0.00 | 0.00 | 0.00 | 78 | 1014.9 |
| 20260509073815 | 59 | 315 | 0.0 | 0.0 | 0.00 | 0.00 | 0.00 | 78 | 1014.9 |
| 20260509073326 | 60 | 315 | 0.0 | 0.0 | 0.00 | 0.00 | 0.00 | 77 | 1014.9 |
| 20260509072818 | 60 | 315 | 0.0 | 0.0 | 0.00 | 0.00 | 0.00 | 77 | 1014.9 |
| 20260509072330 | 60 | 315 | 0.0 | 0.0 | 0.00 | 0.00 | 0.00 | 77 | 1015.0 |
| 20260509071821 | 60 | 315 | 0.0 | 0.0 | 0.00 | 0.00 | 0.00 | 77 | 1014.9 |
| 20260509071312 | 61 | 315 | 0.0 | 0.0 | 0.00 | 0.00 | 0.00 | 76 | 1014.8 |
| 20260509070824 | 61 | 315 | 0.0 | 0.0 | 0.00 | 0.00 | 0.00 | 76 | 1014.9 |
| 20260509070318 | 61 | 315 | 0.0 | 0.0 | 0.00 | 0.00 | 0.00 | 76 | 1015.0 |
| 20260509065829 | 62 | 315 | 0.0 | 0.0 | 0.00 | 0.00 | 0.00 | 76 | 1015.0 |
| 20260509065340 | 62 | 315 | 0.0 | 0.0 | 0.00 | 0.00 | 0.00 | 75 | 1015.0 |
| 20260509064852 | 62 | 315 | 0.0 | 0.0 | 0.00 | 0.00 | 0.00 | 75 | 1015.0 |
| 20260509064321 | 62 | 315 | 0.0 | 0.0 | 0.00 | 0.00 | 0.00 | 75 | 1015.0 |
| 20260509063813 | 62 | 315 | 0.0 | 0.0 | 0.00 | 0.00 | 0.00 | 75 | 1015.1 |
| 20260509063344 | 62 | 315 | 0.0 | 0.0 | 0.00 | 0.00 | 0.00 | 74 | 1015.1 |
| 20260509062814 | 62 | 315 | 0.0 | 0.0 | 0.00 | 0.00 | 0.00 | 73 | 1015.1 |
| 20260509062346 | 62 | 315 | 0.0 | 0.0 | 0.00 | 0.00 | 0.00 | 73 | 1015.1 |
| 20260509061815 | 63 | 315 | 0.0 | 0.0 | 0.00 | 0.00 | 0.00 | 72 | 1015.1 |
| 20260509061328 | 63 | 315 | 0.0 | 0.0 | 0.00 | 0.00 | 0.00 | 71 | 1015.1 |
| 20260509060823 | 63 | 315 | 0.0 | 0.0 | 0.00 | 0.00 | 0.00 | 71 | 1015.0 |
| 20260509060334 | 63 | 315 | 0.0 | 0.0 | 0.00 | 0.00 | 0.00 | 71 | 1015.0 |
| 20260509055845 | 64 | 315 | 0.0 | 0.0 | 0.00 | 0.00 | 0.00 | 70 | 1015.1 |
| 20260509055315 | 64 | 315 | 0.0 | 0.0 | 0.00 | 0.00 | 0.00 | 69 | 1015.0 |
| 20260509054826 | 64 | 315 | 0.0 | 0.0 | 0.00 | 0.00 | 0.00 | 68 | 1015.0 |
| 20260509054316 | 65 | 315 | 0.0 | 0.0 | 0.00 | 0.00 | 0.00 | 67 | 1015.0 |
| 20260509053828 | 65 | 315 | 0.0 | 0.0 | 0.00 | 0.00 | 0.00 | 66 | 1014.9 |
| 20260509053341 | 66 | 315 | 0.0 | 0.0 | 0.00 | 0.00 | 0.00 | 65 | 1015.1 |
| 20260509052811 | 66 | 315 | 0.0 | 0.9 | 0.00 | 0.00 | 0.00 | 65 | 1015.1 |
| 20260509052343 | 67 | 315 | 0.0 | 1.7 | 0.00 | 0.00 | 0.00 | 64 | 1015.1 |
| 20260509051813 | 67 | 315 | 0.0 | 0.0 | 0.00 | 0.00 | 0.00 | 64 | 1015.0 |
| 20260509051324 | 67 | 315 | 0.0 | 2.6 | 0.00 | 0.00 | 0.00 | 64 | 1015.0 |
| 20260509050840 | 67 | 315 | 0.9 | 2.6 | 0.00 | 0.00 | 0.00 | 63 | 1015.0 |
| 20260509050329 | 68 | 311 | 0.0 | 2.6 | 0.00 | 0.00 | 0.00 | 62 | 1014.9 |
| 20260509045820 | 68 | 310 | 0.0 | 0.0 | 0.00 | 0.00 | 0.00 | 62 | 1015.1 |
| 20260509045312 | 68 | 308 | 0.0 | 1.7 | 0.00 | 0.00 | 0.00 | 61 | 1015.0 |
| 20260509044823 | 68 | 304 | 0.0 | 2.6 | 0.00 | 0.00 | 0.00 | 61 | 1015.0 |
| 20260509044334 | 69 | 307 | 0.0 | 2.6 | 0.00 | 0.00 | 0.00 | 60 | 1014.9 |
| 20260509043823 | 69 | 304 | 1.7 | 2.6 | 0.00 | 0.00 | 0.00 | 59 | 1014.8 |
| 20260509043334 | 70 | 311 | 0.0 | 3.5 | 0.00 | 0.00 | 0.00 | 58 | 1014.8 |
| 20260509042825 | 70 | 302 | 1.7 | 4.3 | 0.00 | 0.00 | 0.00 | 58 | 1014.8 |
| 20260509042315 | 71 | 311 | 1.7 | 4.3 | 0.00 | 0.00 | 0.00 | 58 | 1014.8 |
| 20260509041827 | 71 | 311 | 0.0 | 0.0 | 0.00 | 0.00 | 0.00 | 57 | 1014.8 |
| 20260509041321 | 71 | 311 | 0.0 | 0.0 | 0.00 | 0.00 | 0.00 | 57 | 1014.7 |
| 20260509040813 | 71 | 313 | 0.0 | 0.0 | 0.00 | 0.00 | 0.00 | 56 | 1014.6 |